When you browse on this site, cookies collect data to enhance your experience and personalize the content and advertising you see.
Visit our Privacy Policy to learn more. By continuing to use the site, you agree to this use of cookies and data.
  • en France
  • Liste des pays
  • À 7 jours
  • Température de l'eau
  • Carte météo
  • Widgets météo
  • user-avatar
    Se connecter

    Météo par heure à Wuhai

    Ce jour, 19 Septembre, Jeudi

    Heure Température Précipitation Vent Pression Humidité
    00:00 +21°C° 0 mm 6 m/s 672 mmHg 38%
    01:00 +21°C° 0 mm 5 m/s 672 mmHg 39%
    02:00 +20°C° 0 mm 5 m/s 672 mmHg 44%
    03:00 +19°C° 0 mm 5 m/s 672 mmHg 48%
    04:00 +19°C° 0 mm 4 m/s 671 mmHg 53%
    05:00 +18°C° 0.3 mm 4 m/s 671 mmHg 57%
    06:00 +17°C° 0.3 mm 4 m/s 672 mmHg 61%
    07:00 +15°C° 0 mm 6 m/s 673 mmHg 62%
    08:00 +15°C° 0.1 mm 6 m/s 672 mmHg 62%
    09:00 +15°C° 0.1 mm 6 m/s 672 mmHg 62%
    10:00 +15°C° 0.1 mm 5 m/s 672 mmHg 62%
    11:00 +16°C° 0 mm 5 m/s 672 mmHg 59%
    12:00 +16°C° 0 mm 5 m/s 672 mmHg 56%
    13:00 +19°C° 0 mm 4 m/s 672 mmHg 51%
    14:00 +19°C° 0 mm 3 m/s 672 mmHg 50%
    15:00 +19°C° 0 mm 2 m/s 671 mmHg 49%
    16:00 +20°C° 0 mm 1 m/s 671 mmHg 48%
    17:00 +19°C° 0 mm 3 m/s 671 mmHg 51%
    18:00 +19°C° 0 mm 4 m/s 672 mmHg 53%
    19:00 +17°C° 0 mm 5 m/s 672 mmHg 56%
    20:00 +18°C° 0 mm 4 m/s 672 mmHg 56%
    21:00 +17°C° 0 mm 3 m/s 672 mmHg 57%
    22:00 +17°C° 0 mm 3 m/s 672 mmHg 58%
    23:00 +17°C° 0 mm 2 m/s 672 mmHg 58%

    Demain, 20 Septembre, Vendredi

    Heure Température Précipitation Vent Pression Humidité
    00:00 +16°C° 0 mm 2 m/s 672 mmHg 59%
    01:00 +16°C° 0 mm 2 m/s 672 mmHg 60%
    02:00 +16°C° 0 mm 2 m/s 672 mmHg 61%
    03:00 +16°C° 0 mm 2 m/s 672 mmHg 62%
    04:00 +15°C° 0 mm 2 m/s 672 mmHg 64%
    05:00 +16°C° 0 mm 2 m/s 672 mmHg 62%
    06:00 +16°C° 0 mm 2 m/s 672 mmHg 61%
    07:00 +16°C° 0 mm 2 m/s 673 mmHg 59%
    08:00 +18°C° 0 mm 2 m/s 673 mmHg 53%
    09:00 +19°C° 0 mm 3 m/s 673 mmHg 46%
    10:00 +20°C° 0 mm 3 m/s 673 mmHg 40%
    11:00 +22°C° 0 mm 4 m/s 673 mmHg 34%
    12:00 +23°C° 0 mm 4 m/s 673 mmHg 28%
    13:00 +25°C° 0 mm 4 m/s 673 mmHg 22%
    14:00 +25°C° 0 mm 4 m/s 672 mmHg 21%
    15:00 +25°C° 0 mm 4 m/s 672 mmHg 20%
    16:00 +25°C° 0 mm 4 m/s 672 mmHg 18%
    17:00 +24°C° 0 mm 3 m/s 672 mmHg 21%
    18:00 +24°C° 0 mm 3 m/s 672 mmHg 23%
    19:00 +23°C° 0 mm 2 m/s 673 mmHg 25%
    20:00 +21°C° 0 mm 2 m/s 673 mmHg 28%
    21:00 +21°C° 0 mm 2 m/s 673 mmHg 31%
    22:00 +21°C° 0 mm 1 m/s 673 mmHg 33%
    23:00 +20°C° 0 mm 2 m/s 673 mmHg 35%

    Après-demain, 21 Septembre, Samedi

    Heure Température Précipitation Vent Pression Humidité
    00:00 +19°C° 0 mm 2 m/s 673 mmHg 36%
    01:00 +19°C° 0 mm 2 m/s 673 mmHg 38%
    02:00 +18°C° 0 mm 2 m/s 673 mmHg 39%
    03:00 +18°C° 0 mm 2 m/s 672 mmHg 41%
    04:00 +18°C° 0 mm 2 m/s 672 mmHg 42%
    05:00 +18°C° 0 mm 2 m/s 673 mmHg 42%
    06:00 +18°C° 0 mm 2 m/s 673 mmHg 41%
    07:00 +19°C° 0 mm 2 m/s 674 mmHg 41%
    08:00 +20°C° 0 mm 3 m/s 674 mmHg 37%
    09:00 +21°C° 0 mm 3 m/s 674 mmHg 33%
    10:00 +23°C° 0 mm 4 m/s 674 mmHg 29%
    11:00 +24°C° 0 mm 3 m/s 674 mmHg 27%
    12:00 +25°C° 0 mm 3 m/s 673 mmHg 25%
    13:00 +26°C° 0 mm 3 m/s 673 mmHg 22%
    14:00 +26°C° 0 mm 3 m/s 673 mmHg 21%
    15:00 +26°C° 0 mm 3 m/s 673 mmHg 21%
    16:00 +26°C° 0 mm 3 m/s 672 mmHg 20%
    17:00 +25°C° 0 mm 3 m/s 672 mmHg 21%
    18:00 +25°C° 0 mm 2 m/s 673 mmHg 23%
    19:00 +24°C° 0 mm 2 m/s 673 mmHg 25%
    20:00 +24°C° 0 mm 3 m/s 673 mmHg 27%
    21:00 +22°C° 0 mm 3 m/s 673 mmHg 29%
    22:00 +21°C° 0 mm 3 m/s 673 mmHg 31%
    23:00 +21°C° 0 mm 3 m/s 673 mmHg 33%

    22 Septembre, Dimanche

    Heure Température Précipitation Vent Pression Humidité
    00:00 +20°C° 0 mm 3 m/s 673 mmHg 35%
    01:00 +20°C° 0 mm 3 m/s 673 mmHg 37%
    02:00 +20°C° 0 mm 3 m/s 673 mmHg 38%
    03:00 +19°C° 0 mm 3 m/s 672 mmHg 39%
    04:00 +19°C° 0 mm 4 m/s 672 mmHg 41%
    05:00 +19°C° 0 mm 4 m/s 673 mmHg 42%
    06:00 +19°C° 0 mm 4 m/s 673 mmHg 42%
    07:00 +19°C° 0 mm 4 m/s 673 mmHg 43%
    08:00 +21°C° 0 mm 4 m/s 673 mmHg 40%
    09:00 +22°C° 0 mm 5 m/s 674 mmHg 36%
    10:00 +25°C° 0 mm 5 m/s 674 mmHg 32%
    11:00 +25°C° 0 mm 5 m/s 673 mmHg 29%
    12:00 +26°C° 0 mm 4 m/s 673 mmHg 26%
    13:00 +26°C° 0 mm 4 m/s 673 mmHg 23%
    14:00 +26°C° 0 mm 4 m/s 672 mmHg 23%
    15:00 +26°C° 0 mm 3 m/s 672 mmHg 23%
    16:00 +26°C° 0 mm 3 m/s 672 mmHg 24%
    17:00 +26°C° 0 mm 3 m/s 672 mmHg 26%
    18:00 +25°C° 0 mm 4 m/s 672 mmHg 28%
    19:00 +23°C° 0 mm 4 m/s 672 mmHg 31%
    20:00 +22°C° 0.1 mm 3 m/s 672 mmHg 33%
    21:00 +21°C° 0.1 mm 3 m/s 672 mmHg 36%
    22:00 +20°C° 0.1 mm 3 m/s 672 mmHg 39%
    23:00 +20°C° 0.3 mm 2 m/s 672 mmHg 40%

    23 Septembre, Lundi

    Heure Température Précipitation Vent Pression Humidité
    00:00 +20°C° 0.3 mm 2 m/s 672 mmHg 41%
    01:00 +20°C° 0.3 mm 2 m/s 672 mmHg 42%
    02:00 +19°C° 0 mm 2 m/s 672 mmHg 43%
    03:00 +19°C° 0 mm 2 m/s 672 mmHg 44%
    04:00 +19°C° 0 mm 1 m/s 672 mmHg 45%
    05:00 +20°C° 0 mm 1 m/s 672 mmHg 44%
    06:00 +20°C° 0 mm 1 m/s 673 mmHg 43%
    07:00 +21°C° 0 mm 1 m/s 673 mmHg 42%
    08:00 +22°C° 0 mm 1 m/s 674 mmHg 38%
    09:00 +23°C° 0 mm 1 m/s 674 mmHg 34%
    10:00 +24°C° 0 mm 2 m/s 674 mmHg 29%
    11:00 +25°C° 0 mm 1 m/s 674 mmHg 27%
    12:00 +25°C° 0 mm 1 m/s 674 mmHg 24%
    13:00 +26°C° 0 mm 1 m/s 674 mmHg 22%
    14:00 +26°C° 0 mm 2 m/s 673 mmHg 21%
    15:00 +26°C° 0 mm 2 m/s 673 mmHg 21%
    16:00 +27°C° 0 mm 3 m/s 673 mmHg 20%
    17:00 +26°C° 0 mm 3 m/s 673 mmHg 22%
    18:00 +25°C° 0 mm 3 m/s 673 mmHg 24%
    19:00 +23°C° 0 mm 4 m/s 674 mmHg 26%
    20:00 +24°C° 0 mm 3 m/s 674 mmHg 28%
    21:00 +22°C° 0 mm 3 m/s 674 mmHg 30%
    22:00 +21°C° 0 mm 3 m/s 674 mmHg 32%
    23:00 +21°C° 0 mm 3 m/s 674 mmHg 34%

    24 Septembre, Mardi

    Heure Température Précipitation Vent Pression Humidité
    00:00 +20°C° 0 mm 2 m/s 674 mmHg 35%
    01:00 +20°C° 0 mm 2 m/s 674 mmHg 36%
    02:00 +20°C° 0 mm 2 m/s 674 mmHg 36%
    03:00 +20°C° 0 mm 1 m/s 674 mmHg 37%
    04:00 +20°C° 0 mm 1 m/s 673 mmHg 38%
    05:00 +20°C° 0 mm 1 m/s 674 mmHg 38%
    06:00 +21°C° 0 mm 1 m/s 674 mmHg 38%
    07:00 +21°C° 0 mm 1 m/s 674 mmHg 38%
    08:00 +22°C° 0 mm 1 m/s 675 mmHg 34%
    09:00 +24°C° 0 mm 2 m/s 675 mmHg 29%
    10:00 +25°C° 0 mm 2 m/s 675 mmHg 25%
    11:00 +26°C° 0 mm 2 m/s 675 mmHg 23%
    12:00 +26°C° 0 mm 3 m/s 674 mmHg 20%
    13:00 +27°C° 0 mm 3 m/s 674 mmHg 18%
    14:00 +27°C° 0 mm 3 m/s 674 mmHg 17%
    15:00 +27°C° 0 mm 3 m/s 673 mmHg 17%
    16:00 +27°C° 0 mm 3 m/s 673 mmHg 17%
    17:00 +26°C° 0 mm 3 m/s 673 mmHg 19%
    18:00 +26°C° 0 mm 3 m/s 673 mmHg 21%
    19:00 +25°C° 0 mm 3 m/s 673 mmHg 23%
    20:00 +24°C° 0 mm 3 m/s 673 mmHg 24%
    21:00 +22°C° 0 mm 3 m/s 673 mmHg 25%
    22:00 +23°C° 0 mm 2 m/s 673 mmHg 27%
    23:00 +21°C° 0 mm 2 m/s 673 mmHg 28%
    Voir plus